Погода в Ухте

Россия / Хабаровский край     52°22′36″N   140°23′51″E
темп.,
°C
ветер,
м/с
пор.,
м/с
влажн.,
%
обл.,
%
осадки,
мм/ч
давл.,
гПа
погр.,
м
11 мая, вт
вт1101:00−3всв119358 0.0 101818
04:00−4всв119674 0.0 101913
07:000в126949 0.0 1019203
10:00+6в224544 0.0 1019874
13:00+8вюв3341100 0.0 10181133
16:00+8в324199 0.0 10181072
19:00+6в22544 0.0 1018222
22:00+1в21770 0.0 101911
12 мая, ср
ср1201:00−1вюв11802 0.0 101910
04:00−1юв11815 0.0 101910
07:00+4ю12595 0.0 1019177
10:00+9ююз23395 0.0 1017755
13:00+13ююз22355 0.0 10151385
16:00+14ююз233196 0.0 10131836
19:00+11юв23470 0.0 1013324
22:00+4в21760 0.0 101417
13 мая, чт
чт1301:00+2вюв22815 0.0 101320
04:00+1вюв21875 0.0 101318
07:00+4ю23725 0.0 1012226
10:00+11ю23490 0.0 1010722
13:00+15ююв23390 0.0 10091280
16:00+15юв33432 0.0 10081506
19:00+10ююв34600 0.0 1009731
22:00+4юв229213 0.0 101039
14 мая, пт
пт1401:00+4юв238499 0.0 1010463
04:00+5ююв1280100 0.0 1009264
07:00+6ююв1280100 0.0 1010341
10:00+8ю2269100 0.0 1010849
13:00+11ююз226159 0.0 1010938
16:00+13юз325214 0.0 10091323
19:00+11ююз23601 0.0 1009779
22:00+6ююв11890 0.0 101111
15 мая, сб
сб1501:00+5в11928 0.0 101010
04:00+3в2295100 0.0 100927
07:00+5в3490100 0.0 1007209
10:00+7вюв3885100 0.0 1005639
13:00+5в41291100 3.5 1002792
16:00+4вюв3894100 11.1 999616
19:00+4в1294100 1.1 999239
22:00+3всв219819 1.1 99831